Regional Weather Roundup
Issued by NWS

Home | Current Version | Previous Version | Graphics & Text | Print | Product List | Glossary On
Versions: 1 2 3 4 5 6 7 8 9 10 11 12 13 14 15 16 17 18 19 20 21 22 23 24 25 26 27 28 29 30 31 32 33 34 35 36 37 38 39 40 41 42 43 44 45 46 47 48 49 50
000
ASUS44 KMEG 021810
RWRTN
TENNESSEE HOURLY STATE WEATHER ROUNDUP
NATIONAL WEATHER SERVICE MEMPHIS TN
100 PM CDT TUE SEP 02 2014

TNZ002-004-019-021-049-052-054-088>092-021900-
WEST TENNESSEE

CITY           SKY/WX    TMP DP  RH WIND       PRES   REMARKS
MEMPHIS INTL   CLOUDY    88  75  65 S9        30.01F HX  97
NWS MEMPHIS      N/A     85 N/A N/A MISG        N/A
JACKSON        MOSUNNY   87  75  67 SW13      30.01F HX  96
DYERSBURG      CLOUDY    88  70  55 S12G20    29.98F HX  92
UNION CITY     SUNNY     84  75  74 W9        29.96R HX  92
PARIS          SUNNY     82  73  74 SW13      29.99S
HUNTINGDON     MOSUNNY   85  74  69 SW10      29.98F HX  92
LEXINGTON      MOSUNNY   86  73  66 S13       30.01F HX  93
SAVANNAH       MOSUNNY   88  75  66 S10       30.03S HX  97
$$

TNZ008-025-027-028-033-062-065-066-021900-
NORTH MIDDLE TENNESSEE

CITY           SKY/WX    TMP DP  RH WIND       PRES   REMARKS
NASHVILLE      PTSUNNY   89  72  56 VRB7G16   30.01F HX  96
DICKSON        SUNNY     86  73  66 SW10      30.01F HX  93
PORTLAND       MOSUNNY   86  72  62 SW8       30.00F HX  92
CLARKSVILLE    PTSUNNY   85  74  69 SW8G22    29.98F HX  92
LEBANON        MOSUNNY   89  73  59 SW9       30.00F HX  96
SMYRNA         PTSUNNY   88  74  63 W9        30.01F HX  96
COOKEVILLE     MOSUNNY   90  73  58 SW13      30.05F HX  98
LIVINGSTON     MOSUNNY   85  70  60 SW15      30.06F
GALLATIN       MOSUNNY   91  75  59 VRB7      30.01F HX 101
CROSSVILLE     SUNNY     85  66  53 W12G17    30.11F
$$

TNZ061-075-076-078-094-096-097-021900-
SOUTH MIDDLE TENNESSEE

CITY           SKY/WX    TMP DP  RH WIND       PRES   REMARKS
LEWISBURG      MOSUNNY   89  71  55 SW10      30.03F HX  95
FAYETTEVILLE   MOSUNNY   86  70  58 SW7       30.07F HX  90
TULLAHOMA      MOSUNNY   88  70  55 S10       30.07F HX  92
WINCHESTER     PTSUNNY   88  72  58 VRB6      30.07F HX  94
MCMINNVILLE    MOSUNNY   90  73  58 SW13      30.06F HX  98
COLUMBIA         N/A     90  77  66 SW13      30.02S HX 102
SHELBYVILLE    MOSUNNY   90  75  62 SW10      30.05F HX 100
$$

TNZ017-018-042-046-047-021900-
NORTHEAST TENNESSEE

CITY           SKY/WX    TMP DP  RH WIND       PRES   REMARKS
TRI CITIES     MOSUNNY   87  67  51 SW7       30.09F HX  90
ELIZABETHTON   PTCLDY    84  66  54 W9        30.10F
$$

TNZ012-013-036-069-073-074-021900-
CENTRAL EAST TENNESSEE

CITY           SKY/WX    TMP DP  RH WIND       PRES   REMARKS
KNOXVILLE      MOSUNNY   88  70  55 SW15      30.07F HX  93
OAK RIDGE      MOSUNNY   89  70  53 SW8       30.07F HX  94
GATLINBURG     PTCLDY    90  70  51 SW9       30.07F HX  95
MORRISTOWN     CLEAR     88  72  58 SW9       30.09F HX  94
$$

TNZ083-085-099-021900-
SOUTHEAST TENNESSEE

CITY           SKY/WX    TMP DP  RH WIND       PRES   REMARKS
CHATTANOOGA    MOSUNNY   90  69  50 SW8       30.07F HX  94
$$

SKY/WX REPORTED AS FAIR MEANS FEW OR NO CLOUDS BELOW
12 THOUSAND FEET.




USA.gov is the U.S. government's official web portal to all federal, state and local government web resources and services.